Regional Weather Roundup
Issued by NWS Wakefield, VA

Home | Current Version | Previous Version | Graphics & Text | Print | Product List | Glossary On
Versions: 1 2 3 4 5 6 7 8 9 10 11 12 13 14 15 16 17 18 19 20 21 22 23 24 25 26 27 28 29 30 31 32 33 34 35 36 37 38 39 40 41 42 43 44 45 46 47 48 49 50
397
ASUS41 KAKQ 250015
RWRAKQ

REGIONAL WEATHER ROUNDUP
NATIONAL WEATHER SERVICE WAKEFIELD VA
800 PM EDT MON JUL 24 2017

Note: "fair" indicates few or no clouds below 12,000 feet with no
significant weather and/or obstructions to visibility. * = Denotes
station may not report precipitation (e.g., rain,snow,etc.),
thunder or fog.

VAZ042-051-052>054-056-250100-
NORTHERN VIRGINIA

CITY           SKY/WX    TMP DP  RH WIND       PRES   REMARKS
WASH NATIONAL  PTCLDY    85  75  72 S7        29.81S
DULLES         MOCLDY    83  73  72 SW3       29.82S
FORT BELVOIR   PTCLDY    84  73  69 SE3       29.81S
QUANTICO       LGT RAIN  87  72  60 SW5       29.82S
FREDERICKSBRG* PTCLDY    86  75  69 MISG      29.82R
STAFFORD*      PTCLDY    82  75  78 CALM      29.87R
WARRENTON      MOCLDY    84  68  57 CALM      29.83R
CULPEPER*      MOCLDY    84  69  61 S5        29.84S
MANASSAS*      CLOUDY    85  72  65 S5        29.83R
LEESBURG*      PTCLDY    84  75  74 SW6       29.84S
WINCHESTER     MOCLDY    82  61  47 W7        29.86R
FRONT ROYAL*   CLOUDY    86  61  42 W13G20    29.85R
LURAY*         CLOUDY    82  61  47 W6        29.87R
$$

VAZ048-049-060>072-079>083-250100-
CENTRAL AND SOUTH CENTRAL VIRGINIA

CITY           SKY/WX    TMP DP  RH WIND       PRES   REMARKS
RICHMOND       MOCLDY    87  71  58 S7        29.84R
CHESTERFIELD*  NOT AVBL
PETERSBURG*    CLEAR     82  70  68 CALM      29.85S
HANOVER        MOCLDY    83  72  69 CALM      29.85R
TAPPAHANNOCK*  MOCLDY    83  64  52 CALM      29.85R
QUINTON*       FAIR      85  76  74 CALM      29.84R
CHARLOTTSVILLE CLOUDY    80  74  81 N6        29.86R
GORDONSVILLE*  MOCLDY    79  70  75 CALM      29.85R
ORANGE*        MOCLDY    79  68  69 CALM      29.85R
LOUISA*        PTCLDY    75  72  88 CALM      29.85R
BUMPASS*       FAIR      82  72  72 CALM      29.84S
FARMVILLE*     PTCLDY    87  64  46 SW5       29.86S
CREWE*         FAIR      85  67  54 CALM      29.87R
FORT PICKETT*  FAIR     N/A N/A N/A W5        29.87S
CHASE CITY*    FAIR      84  70  64 CALM      29.89R
CLARKSVILLE*   FAIR      82  70  65 SW5       29.89R
SOUTH HILL*    CLEAR     86  71  60 SW5       29.94R
LAWRENCEVILLE* FAIR      86  68  55 CALM      29.88R
EMPORIA*       CLEAR     86  66  51 CALM      29.88R
$$

VAZ088>098-250100-
SOUTHEAST VIRGINIA

CITY           SKY/WX    TMP DP  RH WIND       PRES   REMARKS
NORFOLK        CLEAR     86  75  69 SW9       29.85R HX  95
VIRGINIA BEACH PTCLDY    84  72  67 S9        29.85R
NORFOLK NAVAL  PTCLDY    86  74  67 SW8       29.87R
WEST POINT*    PTCLDY    85  72  64 E6        29.85S
SALUDA*        FAIR      84  78  80 CALM      29.84S HX  95
NEWPORT NEWS   CLEAR     86  76  71 S9        29.85R HX  96
LANGLEY AFB    PTCLDY    86  76  72 S10       29.85R HX  96
FORT EUSTIS    CLEAR     87  78  74 S6        29.83R HX 100
WILLIAMSBURG*  CLEAR     90  77  66 CALM      29.85S HX 102
HR EXEC AP*    FAIR      84  73  70 SW7       29.84R
FRANKLIN*      CLEAR     84  75  74 S6        29.87R
US460-WAKEFLD  CLEAR     86  78  77 S3        29.86R HX  98
$$

VAZ020-022-025-037-045-250100-
WEST CENTRAL AND SOUTHWEST VIRGINIA

CITY           SKY/WX    TMP DP  RH WIND       PRES   REMARKS
STAUNTON*      CLOUDY    82  61  49 NW6       29.92R
WAYNESBORO*    CLOUDY    82  63  51 W7        29.93R
HOT SPRINGS VA CLOUDY    70  54  56 W8G16     30.09R
LYNCHBURG      PTCLDY   N/A N/A N/A SW3       29.91R
DANVILLE       CLEAR     84  73  69 S3        29.91R
SOUTH BOSTON*  FAIR      84  70  62 SW3       29.89R
MARTINSVILLE   PTCLDY    81  73  76 CALM      29.96R
ROANOKE        MOCLDY    85  64  49 NW9       29.95R
BLACKSBURG     MOCLDY    80  63  54 NW5       30.03S
DUBLIN*        PTCLDY    80  55  42 W6        30.03R
MARION*        MOCLDY    77  63  62 SW5       30.08R
HILLSVILLE*    CLOUDY    78  59  52 CALM      30.05R
RICHLANDS*     CLOUDY    69  67  92 NE3       30.08R
WISE*          LGT RAIN  73  63  68 NW7       30.09R
ABINGDON*      PTCLDY    82  66  58 W8        30.03S
$$

MDZ021>025-VAZ099-100-250100-
SOUTHERN MARYLAND AND THE DELMARVA PENINSULA

CITY           SKY/WX    TMP DP  RH WIND       PRES   REMARKS
PATUXENT RIVER MOCLDY    83  72  69 S6        29.83S
BAY BRIDGE APT NOT AVBL
LEONARDTOWN    MOCLDY    81  72  74 SE3       29.85S
DOVER          CLOUDY    83  82  95 S8        29.81R HX  98
GEORGETOWN     CLOUDY    81  71  71 S3        29.84S
EASTON         PTCLDY    86  72  62 S6        29.85F
CAMBRIDGE      CLEAR     84  73  70 S5        29.83S
SALISBURY      CLEAR     82  73  74 S5        29.84R
OCEAN CITY     CLEAR     81  74  79 W3        29.85R
WALLOPS ISLAND CLEAR     78  75  90 S6        29.86R
ACCOMACK*      CLEAR     82  74  75 S6        29.86R
$$

NCZ012>017-030>032-250100-
NORTH CENTRAL AND EASTERN NORTH CAROLINA

CITY           SKY/WX    TMP DP  RH WIND       PRES   REMARKS
ROANOKE RAPIDS FAIR      88  72  58 SW8       29.88R
RALEIGH        MOCLDY    84  69  60 W5        29.92R
ELIZABETH CITY CLEAR     84  78  82 S6        29.88R HX  95
AHOSKIE*       NOT AVBL
EDENTON*       CLEAR     87  77  71 CALM      29.89R HX  98
CURRITUCK*     CLEAR     85  75  71 S3        29.88R
KILL DEVIL HLS CLEAR     85  74  70 SW7       29.87S
MANTEO         CLOUDY    85  79  82 SW13      29.89R HX  97
CAPE HATTERAS  PTCLDY    80  75  84 SW10      29.92R
TARBORO*       NOT AVBL
GOLDSBORO      CLEAR     86  78  77 SW5       29.91R HX  99
WASHINGTON     CLEAR     85  74  68 S5        29.90R
GREENVILLE     CLEAR     86  73  66 SW5       29.93R
NEW BERN       CLEAR     84  76  76 SW5       29.93R
WILMINGTON     PTCLDY    81  75  82 SW8       29.97R
$$

VAZ048-250100-
ELSEWHERE

CITY           SKY/WX    TMP DP  RH WIND       PRES   REMARKS
HARRISBURG PA  PTCLDY    75  70  84 NW8       29.83R
BALTIMORE      MOCLDY    81  74  79 SW5       29.80F
ANNAPOLIS      PTCLDY    86  74  67 S6        29.81S
ANDREWS AFB    PTCLDY    82  73  73 S6        29.82R
PHILADELPHIA   MOCLDY    85  68  56 S8        29.81R
HENDERSON NC   CLEAR     83  68  61 SW6       29.91R
GREENSBORO     MOCLDY    86  68  54 SW8       29.94R
ROCKY MOUNT    PTCLDY    84  77  79 S7        29.90R
$$

VAZ100-250100-
MARINE

STATION/POSITION TIME  TEMP    WIND        PRES    WAVE   SWELL
                       AIR SEA DIR/SP/G            HT/PER HT/PER
                 (UTC) (F)     (DEG/KT/KT) (MB)    (FT/S) (FT/S)
BRANDYWINE LGT   2348          160/ 10/ 10 1010.2F
CAPE MAY NJ      2348   78 76   80/  5/  7 1009.8R
LEWES DE         2342   83 75  210/  3/  5 1009.9R
15NM E FENWICK I 2350   77 78  190/  8/ 10 1010.8R   3/ 7   3/ 7
OCEAN-CITY-INLET 2342   82 73  260/  4/  4 1011.1R
WACHAPREAGUE VA  2342   82 85  160/  7/ 10 1011.0R
THOMAS POINT MD  0000   85 84  200/ 12/ 13   N/A
GOOSES REEF MD   2350   86     220/ 10/ 12 1010.1F
COVE POINT MD    2342   85     180/  6/  7 1010.8S
SOLOMONS ISLAND  2342   85 84  150/  6/  7   N/A
BISHOPS HEAD MD  2342   86 85  190/  3/  3 1010.7R
PINEY POINT MD   2348          160/ 10/ 11   N/A
POTOMAC MD       2350   84     160/  8/ 10 1009.4R
CAMBRIDGE MD     2342   85 87              1010.9S
LEWISETTA VA     2342   84 88  170/  4/  6 1010.3R
RAPPAHANNOCK LGT 2348          160/  7/  8 1011.5R
STINGRAY PT      2350   85     160/ 10/ 12 1011.0R
YORK RVR RNG VA  2342   86     210/ 10/ 11 1010.9R
YORKTOWN VA      2342   88 83  210/  5/  6 1010.2R
JAMESTOWN VA     2350          200/  6/  8   N/A
DOMINION TERM VA 2342   85     200/ 10/ 12 1010.8R
KIPTOPEKE VA     2342      80  150/  6/  7   N/A
CHES BAY BRIDGE  2342   85 75  210/  9/ 10 1010.6R
CAPE HENRY VA    2342   86     200/  6/ 11   N/A
WILLOUBY STN VA  2342   86     200/ 11/ 13 1010.8R
S CRANEY ISL VA  2342   86     200/  9/ 12 1010.7R
CAPE HENRY BUOY  2330      70                N/A     2/ 8
1ST LANDING BUOY 2350   83                 1010.5R
64NM E OF VA BCH 2350   80 80  200/ 10/ 12 1012.2R   4/ 8   3/ 8
DUCK PIER NC     2342   85 65  240/  6/  8 1011.4R
44100 DUCK FRF   2305      79                N/A     3/ 5
44056 DUCK FRF   0000      73                N/A     2/ 5
OREGON INLET NC  2348          200/ 18/ 20 1012.1R
HATTERAS NC      2342   80 78  220/ 10/ 13 1013.2R
DIAMOND SHLS NC  2350   83 84  230/ 19/ 23 1013.0R   6/ 7
CAPE LOOKOUT NC  2300   82     220/  7/ 10 1012.7R
$$




USA.gov is the U.S. government's official web portal to all federal, state and local government web resources and services.